Location: ?????
(32.7281°N, 34.9563°E)
Time: 02:22:54
(UTC+00:00)

CZ-4B R/B - Pass Details

Date: 04 March 2021
Orbit: 388 x 454 km, 97.6° (Epoch: 18 April)

Event Time Altitude Azimuth Distance (km) Brightness Sun altitude
Rises 03:27:57 0° 183° (S) 2,359 5.0 -8.5°
Reaches altitude 10° 03:30:04 10° 193° (SSW) 1,487 3.9 -8.0°
Maximum altitude 03:33:00 35° 261° (W) 686 1.8 -7.4°
Drops below altitude 10° 03:35:53 10° 329° (NNW) 1,464 3.7 -6.8°
Sets 03:37:58 0° 338° (NNW) 2,316 4.8 -6.4°
